This is the latest recevied weather packets stored in our database for station/object VK6WB. If no packets are shown the sender has not sent any weather packets the latest 10 day(s).
| Time | Temp. | Humidity | Pressure | Rain* | Wind** | Luminosity | Snow |
|---|---|---|---|---|---|---|---|
| 1777992605 | 15° C | 50% | 1022.2 hPa | 0 mm | - | 634 W/m² | - |
| 1777992005 | 15° C | 50% | 1022.3 hPa | 0 mm | - | 634 W/m² | - |
| 1777991405 | 15.56° C | 50% | 1022.3 hPa | 0 mm | - | 634 W/m² | - |
| 1777990805 | 15° C | 54% | 1022.5 hPa | 0 mm | - | 634 W/m² | - |
| 1777989605 | 15.56° C | 56% | 1022.5 hPa | 0 mm | - | 634 W/m² | - |
| 1777989004 | 15° C | 57% | 1022.4 hPa | 0 mm | - | 583 W/m² | - |
| 1777988405 | 15.56° C | 57% | 1022.3 hPa | 0 mm | - | 531 W/m² | - |
| 1777987805 | 15.56° C | 57% | 1022.3 hPa | 0 mm | - | 531 W/m² | - |
| 1777987205 | 15.56° C | 58% | 1022.4 hPa | 0 mm | - | 531 W/m² | - |
| 1777986605 | 15.56° C | 59% | 1022.4 hPa | 0 mm | - | 531 W/m² | - |
| 1777986005 | 15.56° C | 60% | 1022.4 hPa | 0 mm | - | 531 W/m² | - |
| 1777985405 | 16.11° C | 59% | 1022.2 hPa | 0 mm | - | 531 W/m² | - |
| 1777984805 | 16.11° C | 59% | 1022.2 hPa | 0 mm | - | 531 W/m² | - |
| 1777984205 | 16.11° C | 59% | 1022.3 hPa | 0 mm | - | 479 W/m² | - |
| 1777983605 | 16.11° C | 59% | 1022.1 hPa | 0 mm | - | 428 W/m² | - |
| 1777983004 | 16.67° C | 59% | 1022.2 hPa | 0 mm | - | 376 W/m² | - |
| 1777982405 | 16.67° C | 59% | 1022.1 hPa | 0 mm | - | 324 W/m² | - |
| 1777981805 | 16.67° C | 59% | 1022.2 hPa | 0 mm | - | 221 W/m² | - |
| 1777981204 | 16.67° C | 59% | 1022.1 hPa | 0 mm | - | 117 W/m² | - |
| 1777980605 | 17.22° C | 59% | 1022 hPa | 0 mm | - | 66 W/m² | - |
| 1777980005 | 17.22° C | 60% | 1021.9 hPa | 0 mm | - | 14 W/m² | - |
| 1777979404 | 17.22° C | 63% | 1021.9 hPa | 0 mm | - | 14 W/m² | - |
| 1777978805 | 17.22° C | 64% | 1021.7 hPa | 0 mm | - | 14 W/m² | - |
| 1777978205 | 17.78° C | 64% | 1021.7 hPa | 0 mm | - | 14 W/m² | - |
| 1777977604 | 17.78° C | 63% | 1021.6 hPa | 0 mm | - | 14 W/m² | - |
* Rain latest hour (hover to see other rain measurements)
** Current wind speed in m/s (hover to see current wind gust speed)